DW7590 Weather Reports


Display with metric or nautical units.
time (UTC)temp
F
wind
direction
speed
MPH
gust
MPH
rain 1hr
in
rain 24hr
in
rain mn
in
humidity
%
barometer
mb
20260507033247 54 62 3.0 5.0 0.00 0.00 0.00 60 1018.5
20260507032747 54 64 2.0 4.0 0.00 0.00 0.00 60 1018.5
20260507032247 54 65 1.0 4.0 0.00 0.00 0.00 59 1018.4
20260507031749 54 86 1.0 5.0 0.00 0.00 0.00 60 1018.3
20260507031247 53 82 1.0 5.0 0.00 0.00 0.00 60 1018.1
20260507030748 53 66 2.0 5.0 0.00 0.00 0.00 61 1018.2
20260507025747 54 10 1.0 4.0 0.00 0.00 0.00 61 1018.1
20260507025248 54 6 1.0 3.0 0.00 0.00 0.00 61 1018.0
20260507024748 54 10 1.0 1.0 0.00 0.00 0.00 60 1017.8
20260507024249 55 5 1.0 4.0 0.00 0.00 0.00 59 1017.7
20260507023748 55 5 1.0 4.0 0.00 0.00 0.00 59 1017.8
20260507023248 55 6 2.0 4.0 0.00 0.00 0.00 57 1017.7
20260507022249 56 27 3.0 4.0 0.00 0.00 0.00 56 1017.5
20260507021748 57 26 1.0 4.0 0.00 0.00 0.00 55 1017.5
20260507021248 57 82 1.0 4.0 0.00 0.00 0.00 55 1017.5
20260507020748 57 147 2.0 4.0 0.00 0.00 0.00 54 1017.4
20260507020248 58 85 1.0 5.0 0.00 0.00 0.00 53 1017.3
20260507015748 58 68 1.0 7.0 0.00 0.00 0.00 53 1017.2
20260507015247 58 72 2.0 7.0 0.00 0.00 0.00 52 1017.1
20260507014749 58 86 3.0 7.0 0.00 0.00 0.00 52 1017.1
20260507014247 59 45 1.0 7.0 0.00 0.00 0.00 52 1017.1
20260507013747 59 20 1.0 7.0 0.00 0.00 0.00 52 1017.1
20260507013248 59 38 1.0 5.0 0.00 0.00 0.00 51 1017.0
20260507012747 60 62 3.0 5.0 0.00 0.00 0.00 51 1017.0
20260507012249 60 61 2.0 8.0 0.00 0.00 0.00 51 1017.0
20260507011749 60 56 5.0 8.0 0.00 0.00 0.00 51 1017.0
20260507011247 60 10 2.0 7.0 0.00 0.00 0.00 51 1017.0
20260507010748 60 70 2.0 7.0 0.00 0.00 0.00 51 1017.0
20260507010247 60 42 1.0 7.0 0.00 0.00 0.00 51 1017.0
20260507005748 60 10 3.0 9.0 0.00 0.00 0.00 51 1016.9
20260507004747 61 41 3.0 8.0 0.00 0.00 0.00 50 1016.8
20260507004248 61 53 3.0 9.0 0.00 0.00 0.00 51 1016.8
20260507003748 61 46 3.0 9.0 0.00 0.00 0.00 51 1016.8
20260507003249 61 51 5.0 12.0 0.00 0.00 0.00 50 1016.7
20260507001748 61 43 1.0 8.0 0.00 0.00 0.00 50 1016.6
20260507001248 61 15 2.0 10.0 0.00 0.00 0.00 50 1016.5
20260507000748 62 4 5.0 10.0 0.00 0.00 0.00 50 1016.6
20260506235747 62 324 2.0 12.0 0.00 0.00 0.00 50 1016.5
20260506235247 62 15 7.0 13.0 0.00 0.00 0.00 50 1016.5
20260506234747 62 31 5.0 13.0 0.00 0.00 0.00 49 1016.5
20260506234248 63 93 7.0 12.0 0.00 0.00 0.00 48 1016.4
20260506233747 63 61 5.0 12.0 0.00 0.00 0.00 49 1016.3
20260506233248 62 74 2.0 12.0 0.00 0.00 0.00 49 1016.3
20260506232747 63 29 6.0 13.0 0.00 0.00 0.00 49 1016.2
20260506232248 63 113 8.0 14.0 0.00 0.00 0.00 48 1016.2
20260506231749 63 109 3.0 14.0 0.00 0.00 0.00 48 1016.1
20260506231247 63 109 5.0 13.0 0.00 0.00 0.00 48 1016.1
20260506230749 63 116 8.0 14.0 0.00 0.00 0.00 47 1016.1
20260506230247 63 99 5.0 16.0 0.00 0.00 0.00 48 1016.0
20260506225748 63 84 11.0 16.0 0.00 0.00 0.00 48 1016.0
20260506225247 63 20 2.0 13.0 0.00 0.00 0.00 49 1016.0
20260506224747 63 105 6.0 13.0 0.00 0.00 0.00 48 1015.9
20260506223748 63 10 3.0 14.0 0.00 0.00 0.00 48 1015.8
20260506223248 63 80 11.0 13.0 0.00 0.00 0.00 48 1015.6
20260506222748 63 74 2.0 16.0 0.00 0.00 0.00 47 1015.6
20260506222248 63 43 3.0 16.0 0.00 0.00 0.00 49 1015.5
20260506221748 63 20 7.0 13.0 0.00 0.00 0.00 49 1015.4
20260506221248 63 111 5.0 13.0 0.00 0.00 0.00 49 1015.4
20260506220747 63 81 12.0 14.0 0.00 0.00 0.00 49 1015.4
20260506220247 63 105 1.0 14.0 0.00 0.00 0.00 48 1015.4
20260506215247 63 36 2.0 12.0 0.00 0.00 0.00 47 1015.6
20260506214248 62 33 2.0 13.0 0.00 0.00 0.00 49 1015.7
20260506213749 63 28 3.0 18.0 0.00 0.00 0.00 49 1015.7
20260506213247 63 15 2.0 18.0 0.00 0.00 0.00 50 1015.8
20260506212249 63 108 5.0 14.0 0.00 0.00 0.00 50 1015.9
20260506211747 63 39 6.0 13.0 0.00 0.00 0.00 50 1015.9
20260506210747 62 20 2.0 13.0 0.00 0.00 0.00 50 1016.0
20260506210248 62 88 6.0 16.0 0.00 0.00 0.00 50 1016.0
20260506205748 63 73 6.0 16.0 0.00 0.00 0.00 48 1016.0
20260506205247 62 327 2.0 14.0 0.00 0.00 0.00 50 1016.0
20260506204748 62 61 7.0 14.0 0.00 0.00 0.00 50 1016.0
20260506203748 61 141 1.0 13.0 0.00 0.00 0.00 53 1016.2
20260506202247 61 119 3.0 16.0 0.00 0.00 0.00 54 1016.4
20260506201747 61 70 9.0 16.0 0.00 0.00 0.00 53 1016.5
20260506201248 61 100 5.0 13.0 0.00 0.00 0.00 55 1016.5
20260506200748 61 47 2.0 13.0 0.00 0.00 0.00 54 1016.5
20260506200248 61 26 1.0 7.0 0.00 0.00 0.00 57 1016.5
20260506195247 60 127 2.0 13.0 0.00 0.00 0.00 55 1016.6
20260506194747 60 87 7.0 13.0 0.00 0.00 0.00 56 1016.7
20260506194247 60 349 2.0 13.0 0.00 0.00 0.00 57 1016.7
20260506193747 60 84 1.0 12.0 0.00 0.00 0.00 56 1016.8
20260506193247 60 103 3.0 12.0 0.00 0.00 0.00 57 1016.8
20260506192247 59 78 1.0 12.0 0.00 0.00 0.00 57 1016.8
20260506191748 59 104 1.0 12.0 0.00 0.00 0.00 57 1016.8
20260506191247 59 55 2.0 12.0 0.00 0.00 0.00 58 1016.9
20260506190747 59 28 12.0 12.0 0.00 0.00 0.00 56 1017.0
20260506190247 59 80 6.0 12.0 0.00 0.00 0.00 57 1017.0
20260506185748 59 45 2.0 12.0 0.00 0.00 0.00 56 1017.0
20260506185247 59 99 2.0 18.0 0.00 0.00 0.00 58 1017.0
20260506184749 59 60 2.0 18.0 0.00 0.00 0.00 57 1017.1
20260506184247 59 94 5.0 18.0 0.00 0.00 0.00 57 1017.3
20260506183747 59 93 5.0 13.0 0.00 0.00 0.00 58 1017.3
20260506183247 59 95 2.0 13.0 0.00 0.00 0.00 57 1017.4
20260506182248 59 89 6.0 12.0 0.00 0.00 0.00 58 1017.5
20260506181749 59 107 2.0 12.0 0.00 0.00 0.00 57 1017.5
20260506181249 59 111 2.0 12.0 0.00 0.00 0.00 57 1017.5
20260506180748 58 99 5.0 9.0 0.00 0.00 0.00 57 1017.4
20260506180247 59 75 8.0 14.0 0.00 0.00 0.00 57 1017.5
20260506175248 59 153 3.0 13.0 0.00 0.00 0.00 58 1017.6
20260506174749 59 89 2.0 13.0 0.00 0.00 0.00 58 1017.6
20260506174248 59 107 8.0 13.0 0.00 0.00 0.00 57 1017.7
20260506173748 58 122 2.0 13.0 0.00 0.00 0.00 59 1017.8
20260506173248 58 99 1.0 13.0 0.00 0.00 0.00 58 1017.7
20260506172748 58 81 2.0 16.0 0.00 0.00 0.00 58 1017.8
20260506172247 58 85 6.0 16.0 0.00 0.00 0.00 59 1017.6
20260506171747 58 39 5.0 13.0 0.00 0.00 0.00 58 1017.7
20260506171249 58 111 5.0 13.0 0.00 0.00 0.00 57 1017.7
20260506170247 57 80 3.0 18.0 0.00 0.00 0.00 59 1017.8
20260506165747 57 26 2.0 17.0 0.00 0.00 0.00 60 1017.7
20260506164747 56 83 3.0 18.0 0.00 0.00 0.00 60 1017.8
20260506164247 56 80 6.0 18.0 0.00 0.00 0.00 60 1017.9
20260506163748 57 40 2.0 14.0 0.00 0.00 0.00 60 1018.1
20260506163248 56 98 6.0 23.0 0.00 0.00 0.00 59 1017.9
20260506162748 57 61 1.0 23.0 0.00 0.00 0.00 59 1018.0
20260506162247 57 113 2.0 18.0 0.00 0.00 0.00 61 1018.0
20260506161747 56 88 3.0 18.0 0.00 0.00 0.00 60 1017.9
20260506161248 56 74 8.0 22.0 0.00 0.00 0.00 60 1017.7
20260506160748 56 140 13.0 22.0 0.00 0.00 0.00 60 1017.7
20260506160247 55 95 2.0 17.0 0.00 0.00 0.00 63 1017.6
20260506155748 55 122 5.0 20.0 0.00 0.00 0.00 61 1017.7
20260506155247 55 27 9.0 20.0 0.00 0.00 0.00 62 1017.7
20260506154747 54 70 2.0 20.0 0.00 0.00 0.00 61 1017.6
20260506153747 54 32 5.0 20.0 0.00 0.00 0.00 63 1017.3
20260506153247 54 41 13.0 16.0 0.00 0.00 0.00 64 1017.5
20260506152748 54 84 2.0 22.0 0.00 0.00 0.00 65 1017.4
20260506152249 54 113 11.0 22.0 0.00 0.00 0.00 63 1017.6
20260506151747 54 91 2.0 13.0 0.00 0.00 0.00 66 1017.4
20260506151247 53 143 2.0 21.0 0.00 0.00 0.00 66 1017.4
20260506150247 52 109 14.0 17.0 0.00 0.00 0.00 66 1017.2
20260506145747 52 70 2.0 17.0 0.00 0.00 0.00 68 1017.1
20260506144749 51 95 2.0 20.0 0.00 0.00 0.00 69 1016.8
20260506143247 50 118 2.0 20.0 0.00 0.00 0.00 72 1016.5
20260506142747 50 90 5.0 17.0 0.00 0.00 0.00 74 1016.6
20260506141749 49 76 3.0 14.0 0.00 0.00 0.00 76 1016.5
20260506141247 49 105 12.0 14.0 0.00 0.00 0.00 77 1016.6
20260506140747 49 95 3.0 14.0 0.00 0.00 0.00 76 1016.6
20260506140248 49 103 5.0 12.0 0.00 0.00 0.00 76 1016.5
20260506135747 49 351 2.0 10.0 0.00 0.00 0.00 78 1016.6
20260506135248 49 58 2.0 10.0 0.00 0.00 0.00 78 1016.6
20260506134747 49 55 2.0 10.0 0.00 0.00 0.00 78 1016.5
20260506133748 48 76 3.0 9.0 0.00 0.00 0.00 79 1016.7
20260506133247 48 73 2.0 9.0 0.00 0.00 0.00 79 1016.8
20260506132748 48 90 2.0 9.0 0.00 0.00 0.00 80 1016.6
20260506132247 48 91 2.0 14.0 0.00 0.00 0.00 80 1016.5
20260506131747 48 109 6.0 14.0 0.00 0.00 0.00 80 1016.5
20260506130748 48 88 2.0 12.0 0.00 0.00 0.00 81 1016.3
20260506130247 48 72 2.0 14.0 0.00 0.00 0.00 80 1016.4
20260506125247 48 3 2.0 17.0 0.00 0.00 0.00 80 1016.3
20260506124748 48 20 5.0 17.0 0.00 0.00 0.00 80 1016.2
20260506124247 48 38 3.0 14.0 0.00 0.00 0.00 80 1016.1
20260506123748 48 55 12.0 12.0 0.00 0.00 0.00 80 1015.9
20260506123247 48 24 2.0 14.0 0.00 0.00 0.00 80 1015.8
20260506122747 48 53 1.0 14.0 0.00 0.00 0.00 80 1015.8
20260506122247 48 38 1.0 10.0 0.00 0.00 0.00 81 1015.9
20260506121747 48 20 2.0 10.0 0.00 0.00 0.00 81 1015.7
20260506121248 48 32 3.0 12.0 0.00 0.00 0.00 81 1015.5
20260506120748 48 72 7.0 12.0 0.00 0.00 0.00 81 1015.4
20260506120247 48 66 5.0 9.0 0.00 0.00 0.00 81 1015.4
20260506115747 48 31 2.0 16.0 0.00 0.00 0.00 81 1015.4
20260506115247 47 55 2.0 16.0 0.00 0.00 0.00 81 1015.3
20260506114748 48 66 2.0 10.0 0.00 0.00 0.00 81 1015.4
20260506114247 48 96 2.0 10.0 0.00 0.00 0.00 81 1015.2
20260506112247 48 78 2.0 9.0 0.00 0.00 0.00 80 1015.0
20260506111247 48 72 2.0 7.0 0.00 0.00 0.00 80 1014.9
20260506110748 48 348 2.0 10.0 0.00 0.00 0.00 80 1014.7
20260506110248 48 38 5.0 10.0 0.00 0.00 0.00 79 1014.6
20260506105747 48 63 5.0 10.0 0.00 0.00 0.00 79 1014.8
20260506105247 48 24 3.0 8.0 0.00 0.00 0.00 79 1015.2
20260506104747 48 62 3.0 7.0 0.00 0.00 0.00 79 1015.6
20260506104249 48 10 2.0 7.0 0.00 0.00 0.00 79 1015.6
20260506103747 48 31 2.0 8.0 0.00 0.00 0.00 79 1015.8
20260506103247 48 59 1.0 8.0 0.00 0.00 0.00 78 1015.6
20260506102749 48 44 2.0 13.0 0.00 0.00 0.00 78 1015.3
20260506102247 48 20 2.0 13.0 0.00 0.00 0.00 78 1015.2
20260506101747 48 55 7.0 7.0 0.00 0.00 0.00 78 1015.3
20260506101247 48 66 2.0 7.0 0.00 0.00 0.00 79 1015.2
20260506100747 48 50 2.0 7.0 0.00 0.00 0.00 78 1015.1
20260506095748 48 15 1.0 9.0 0.00 0.00 0.00 78 1014.9
20260506095247 48 10 2.0 9.0 0.00 0.00 0.00 78 1014.8
20260506094747 48 30 2.0 5.0 0.00 0.00 0.00 78 1014.7
20260506094247 48 41 3.0 5.0 0.00 0.00 0.00 78 1014.5
20260506093247 48 321 2.0 8.0 0.00 0.00 0.00 78 1014.3
20260506092747 48 77 1.0 8.0 0.00 0.00 0.00 77 1014.1
20260506092247 48 93 5.0 8.0 0.00 0.00 0.00 77 1014.0
20260506091748 48 25 1.0 5.0 0.00 0.00 0.00 77 1014.0
20260506091247 48 41 1.0 13.0 0.00 0.00 0.00 77 1014.1
20260506090247 48 29 1.0 7.0 0.00 0.00 0.00 76 1013.9
20260506085747 48 39 3.0 7.0 0.00 0.00 0.00 76 1013.8
20260506085247 48 64 2.0 5.0 0.00 0.00 0.00 76 1013.9
20260506084748 48 25 2.0 5.0 0.00 0.00 0.00 76 1013.9
20260506084247 48 46 2.0 7.0 0.00 0.00 0.00 76 1013.9
20260506083747 48 3 1.0 7.0 0.00 0.00 0.00 75 1013.7
20260506083247 48 337 2.0 7.0 0.00 0.00 0.00 75 1013.3
20260506082747 48 15 2.0 7.0 0.00 0.00 0.00 75 1013.0
20260506082247 48 10 1.0 7.0 0.00 0.00 0.00 75 1013.0
20260506081747 48 10 1.0 8.0 0.00 0.00 0.00 75 1013.0
20260506081247 48 52 2.0 10.0 0.00 0.00 0.00 75 1013.1
20260506080747 48 68 8.0 10.0 0.00 0.00 0.00 75 1013.0
20260506073247 48 26 2.0 9.0 0.00 0.00 0.00 74 1012.3
20260506072747 48 91 3.0 13.0 0.00 0.00 0.00 74 1012.3
20260506072247 48 79 3.0 13.0 0.00 0.00 0.00 73 1012.3
20260506071748 48 95 2.0 12.0 0.00 0.00 0.00 73 1012.3
20260506070247 49 107 1.0 13.0 0.00 0.00 0.00 73 1012.4
20260506062247 49 355 2.0 10.0 0.00 0.00 0.00 73 1012.4
20260506060248 49 86 3.0 12.0 0.00 0.00 0.00 73 1012.4
20260506050747 49 143 5.0 14.0 0.00 0.00 0.00 71 1012.1
20260506050248 49 69 14.0 14.0 0.00 0.00 0.00 71 1012.3
20260506044247 49 89 2.0 13.0 0.00 0.00 0.00 70 1012.4
20260506043748 49 61 9.0 12.0 0.00 0.00 0.00 70 1012.2
20260506043247 49 65 1.0 13.0 0.00 0.00 0.00 70 1012.2
20260506042747 49 62 3.0 13.0 0.00 0.00 0.00 70 1012.2
20260506042247 49 89 6.0 12.0 0.00 0.00 0.00 71 1012.3
20260506041748 49 83 2.0 14.0 0.00 0.00 0.00 72 1012.1
20260506040747 49 61 14.0 16.0 0.00 0.00 0.00 73 1012.1
20260506040247 49 94 5.0 14.0 0.00 0.00 0.00 73 1012.1
20260506035747 49 113 3.0 13.0 0.00 0.00 0.00 74 1012.2
20260506034747 49 61 1.0 14.0 0.00 0.00 0.00 75 1012.0
20260506034248 49 61 7.0 14.0 0.00 0.00 0.00 75 1011.9
20260506033748 49 116 5.0 20.0 0.00 0.00 0.00 76 1011.7